Погода в Песочном

Россия / Санкт-Петербург и Ленинградская область     60°07′26″N   30°09′37″E
темп.,
°C
ветер,
м/с
пор.,
м/с
влажн.,
%
обл.,
%
осадки,
мм/ч
давл.,
гПа
погр.,
м
3 марта, ср
ср300:00−1зсз511880 0.0 1018384
03:00−1зсз511900 0.0 1018438
06:00−2з4109432 0.0 1015368
09:00−2з5119248 0.0 1015480
12:000з6118681 0.0 1013569
15:00+1з7147891 0.0 1010841
18:00+1з6138398 0.1 1006803
21:00+1зсз6129199 0.2 1004877
4 марта, чт
чт400:00−1зсз5128098 0.1 1003785
03:00−3зсз4107754 0.1 1004516
06:00−4зсз49830 0.0 1003427
09:00−5зсз36860 0.0 1003349
12:00−3зсз357756 0.0 1003557
15:00−2сз357774 0.1 1004701
18:00−3ссз4782100 0.3 1004773
21:00−5ссз397999 0.4 1005726
5 марта, пт
пт500:00−6сз378410 0.0 1006478
03:00−7сз378643 0.0 1007492
06:00−8сз368599 0.0 1008530
09:00−8сз368498 0.1 1009490
12:00−7ссз347899 0.1 1011591
15:00−5ссз246699 0.3 1013991
18:00−6сз256694 0.0 1014371
21:00−6сз277697 0.0 1016597
6 марта, сб
сб600:00−7зсз259094 0.0 1017208
03:00−8зсз259461 0.0 1017186
06:00−9з36921 0.0 1016234
09:00−8з38871 0.0 1015344
12:00−3зюз596421 0.0 10131041
15:00−3юз6116861 0.0 10091047
18:00−3юз81788100 1.0 10021334
21:00−1зюз91895100 4.3 9961254
7 марта, вс
вс700:00−1з91794100 3.9 9911072
03:00−3зсз81373100 4.4 9901175
06:00−9з4126433 0.0 991642
09:00−7з488667 1.0 9891074
12:00−7зсз7126596 0.7 9881572
15:00−6зсз7138998 1.3 9891143
18:00−8с5107899 0.9 9941151
21:00−9сз4119299 0.9 999737